リニア彗星

C/2009 B2 ( LINEAR )

English version
Home page
Updated on March 17, 2010

---------------------------------------------------------------------

・ プロフィール

発見日 2009年1月29日
発見光度 19.4等
発見者 Lincoln Laboratory Near-Earth Asteroid Research project

・ 写真集

・ 軌道要素

Epoch 2009 Feb. 18.0 TT = JDT 2454880.5
T 2009 Mar. 7.39934 TT                                  MPC
q   2.3276432            (2000.0)            P               Q
z  +0.0238630      Peri.  192.49841     -0.98832004     -0.08471947
 +/-0.0000010      Node    18.81506     -0.08223702     +0.99630643
e   0.9444554      Incl.  156.87319     -0.12829873     +0.01400384

・ 光度変化

        m1 = 12.7 + 5 logΔ + 10.0 log r

---------------------------------------------------------------------

軌道要素はM.P.E.C. 2009-G11に掲載されたものです。
光度グラフはComet for Windowsで作成したものです。

---------------------------------------------------------------------

Copyright(C) Seiichi Yoshida (comet@aerith.net). All rights reserved.